Time,TemperatureF,DewpointF,PressureIn,WindDirection,WindDirectionDegrees,WindSpeedMPH,WindSpeedGustMPH,Humidity,HourlyPrecipIn,Conditions,Clouds,dailyrainin,SolarRadiationWatts/m^2,SoftwareType,DateUTC
2013-03-09 15:10:00,75.6,67.1,29.62,SE,140,11.0,13.0,75,0.00,,,0.03,132,Wunderground v.1.15,2013-03-09 21:10:00,
2013-03-09 15:15:00,75.5,67.4,29.62,SE,143,11.0,15.0,76,0.00,,,0.03,255,Wunderground v.1.15,2013-03-09 21:15:00,
2013-03-09 15:20:00,75.4,66.9,29.62,SE,126,11.0,22.0,75,0.00,,,0.03,132,Wunderground v.1.15,2013-03-09 21:20:00,
2013-03-09 15:25:00,75.3,66.8,29.62,SE,142,12.0,22.0,75,0.00,,,0.03,163,Wunderground v.1.15,2013-03-09 21:25:00,
2013-03-09 15:30:00,75.4,67.3,29.61,South,171,12.0,13.0,76,0.00,,,0.03,178,Wunderground v.1.15,2013-03-09 21:30:00,
2013-03-09 15:35:00,75.6,67.5,29.61,East,82,11.0,13.0,76,0.00,,,0.03,114,Wunderground v.1.15,2013-03-09 21:35:00,
2013-03-09 15:40:00,75.2,67.5,29.61,SE,126,12.0,18.0,77,0.00,,,0.03,113,Wunderground v.1.15,2013-03-09 21:40:00,
2013-03-09 15:45:00,74.8,67.1,29.61,SE,126,12.0,18.0,77,0.00,,,0.03,128,Wunderground v.1.15,2013-03-09 21:45:00,
2013-03-09 15:50:00,74.8,67.5,29.61,ESE,122,12.0,12.0,78,0.00,,,0.03,190,Wunderground v.1.15,2013-03-09 21:50:00,
2013-03-09 16:00:00,75.3,67.2,29.60,SE,131,10.0,13.0,76,0.00,,,0.03,153,Wunderground v.1.15,2013-03-09 22:00:00,
2013-03-09 16:06:00,75.1,67.4,29.60,ESE,120,12.0,13.0,77,0.00,,,0.03,232,Wunderground v.1.15,2013-03-09 22:06:00,
2013-03-09 16:10:00,75.2,67.1,29.60,SE,141,11.0,11.0,76,0.00,,,0.03,118,Wunderground v.1.15,2013-03-09 22:10:00,
2013-03-09 16:15:00,75.2,67.5,29.60,SE,133,10.0,12.0,77,0.00,,,0.03,163,Wunderground v.1.15,2013-03-09 22:15:00,
2013-03-09 16:20:00,75.2,67.5,29.60,SE,130,9.0,12.0,77,0.00,,,0.03,200,Wunderground v.1.15,2013-03-09 22:20:00,
2013-03-09 16:25:00,75.2,67.1,29.60,SE,126,10.0,12.0,76,0.00,,,0.03,186,Wunderground v.1.15,2013-03-09 22:25:00,
2013-03-09 16:36:00,74.7,67.0,29.60,SE,141,11.0,12.0,77,0.00,,,0.03,134,Wunderground v.1.15,2013-03-09 22:36:00,
2013-03-09 16:40:00,74.5,66.8,29.60,SE,126,11.0,13.0,77,0.00,,,0.03,130,Wunderground v.1.15,2013-03-09 22:40:00,
2013-03-09 16:45:00,74.3,67.0,29.60,SE,136,12.0,13.0,78,0.00,,,0.03,257,Wunderground v.1.15,2013-03-09 22:45:00,
2013-03-09 16:50:00,74.3,67.0,29.60,ESE,119,13.0,13.0,78,0.00,,,0.03,142,Wunderground v.1.15,2013-03-09 22:50:00,
2013-03-09 17:00:00,74.1,66.8,29.60,ESE,111,12.0,13.0,78,0.00,,,0.03,81,Wunderground v.1.15,2013-03-09 23:00:00,
2013-03-09 17:06:00,73.8,66.9,29.60,ESE,103,13.0,13.0,79,0.00,,,0.03,121,Wunderground v.1.15,2013-03-09 23:06:00,
2013-03-09 17:15:00,73.6,66.7,29.61,ESE,105,10.0,17.0,79,0.00,,,0.03,158,Wunderground v.1.15,2013-03-09 23:15:00,
2013-03-09 17:20:00,73.3,66.8,29.61,SE,127,11.0,18.0,80,0.00,,,0.03,221,Wunderground v.1.15,2013-03-09 23:20:00,
2013-03-09 17:25:00,73.3,66.8,29.61,SE,130,11.0,18.0,80,0.00,,,0.03,178,Wunderground v.1.15,2013-03-09 23:25:00,
2013-03-09 17:30:00,73.1,66.6,29.60,SE,128,11.0,12.0,80,0.00,,,0.03,79,Wunderground v.1.15,2013-03-09 23:30:00,
2013-03-09 17:35:00,72.6,66.4,29.60,SE,132,11.0,20.0,81,0.00,,,0.03,69,Wunderground v.1.15,2013-03-09 23:35:00,
2013-03-09 17:40:00,72.2,66.4,29.60,ESE,113,11.0,11.0,82,0.00,,,0.03,72,Wunderground v.1.15,2013-03-09 23:40:00,
2013-03-09 17:45:00,72.0,66.2,29.60,SE,126,10.0,11.0,82,0.00,,,0.03,62,Wunderground v.1.15,2013-03-09 23:45:00,
2013-03-09 17:50:00,71.9,66.1,29.60,SE,129,10.0,10.0,82,0.00,,,0.03,53,Wunderground v.1.15,2013-03-09 23:50:00,
2013-03-09 18:00:00,71.6,66.2,29.60,ESE,106,11.0,16.0,83,0.00,,,0.03,35,Wunderground v.1.15,2013-03-10 00:00:00,
2013-03-09 18:06:00,71.5,66.1,29.60,SSE,153,10.0,16.0,83,0.00,,,0.03,32,Wunderground v.1.15,2013-03-10 00:06:00,
2013-03-09 18:10:00,71.3,65.9,29.60,SE,132,11.0,16.0,83,0.00,,,0.03,25,Wunderground v.1.15,2013-03-10 00:10:00,
2013-03-09 18:15:00,71.2,66.1,29.61,ESE,113,12.0,16.0,84,0.00,,,0.03,23,Wunderground v.1.15,2013-03-10 00:15:00,
2013-03-09 18:20:00,71.0,65.9,29.61,SE,129,11.0,11.0,84,0.00,,,0.03,12,Wunderground v.1.15,2013-03-10 00:20:00,
2013-03-09 18:30:00,70.8,66.1,29.61,ESE,123,11.0,11.0,85,0.00,,,0.03,5,Wunderground v.1.15,2013-03-10 00:30:00,
2013-03-09 18:35:00,70.7,66.0,29.61,ESE,114,10.0,11.0,85,0.00,,,0.03,0,Wunderground v.1.15,2013-03-10 00:35:00,
2013-03-09 18:40:00,70.6,65.9,29.61,ESE,115,11.0,11.0,85,0.00,,,0.03,0,Wunderground v.1.15,2013-03-10 00:40:00,
2013-03-09 18:45:00,70.6,65.9,29.61,SE,126,12.0,12.0,85,0.00,,,0.03,0,Wunderground v.1.15,2013-03-10 00:45:00,
2013-03-09 18:50:00,70.5,65.8,29.61,ESE,109,11.0,15.0,85,0.00,,,0.03,0,Wunderground v.1.15,2013-03-10 00:50:00,
2013-03-09 18:55:00,70.5,65.8,29.61,SE,128,11.0,15.0,85,0.00,,,0.03,0,Wunderground v.1.15,2013-03-10 00:55:00,
2013-03-09 19:10:00,70.4,65.7,29.61,East,83,11.0,11.0,85,0.00,,,0.03,0,Wunderground v.1.15,2013-03-10 01:10:00,
2013-03-09 19:15:00,70.3,65.6,29.60,SE,129,10.0,13.0,85,0.00,,,0.03,0,Wunderground v.1.15,2013-03-10 01:15:00,
2013-03-09 19:20:00,70.3,65.6,29.60,SE,125,12.0,12.0,85,0.00,,,0.03,0,Wunderground v.1.15,2013-03-10 01:20:00,
2013-03-09 19:25:00,70.2,65.5,29.60,ESE,113,13.0,13.0,85,0.00,,,0.03,0,Wunderground v.1.15,2013-03-10 01:25:00,
2013-03-09 19:30:00,70.1,65.4,29.59,ESE,110,13.0,13.0,85,0.00,,,0.03,0,Wunderground v.1.15,2013-03-10 01:30:00,
2013-03-09 19:35:00,70.0,65.3,29.59,SSE,153,12.0,16.0,85,0.00,,,0.03,0,Wunderground v.1.15,2013-03-10 01:35:00,
2013-03-09 19:45:00,69.8,65.1,29.59,SE,142,14.0,16.0,85,0.00,,,0.03,0,Wunderground v.1.15,2013-03-10 01:45:00,
2013-03-09 19:50:00,69.7,65.3,29.59,SE,125,13.0,15.0,86,0.00,,,0.03,0,Wunderground v.1.15,2013-03-10 01:50:00,
2013-03-09 19:55:00,69.7,65.3,29.59,ESE,119,12.0,15.0,86,0.00,,,0.03,0,Wunderground v.1.15,2013-03-10 01:55:00,
2013-03-09 20:00:00,69.6,65.2,29.59,SE,128,13.0,13.0,86,0.00,,,0.03,0,Wunderground v.1.15,2013-03-10 02:00:00,
2013-03-09 20:10:00,69.5,65.1,29.59,SE,134,14.0,14.0,86,0.00,,,0.03,0,Wunderground v.1.15,2013-03-10 02:10:00,
2013-03-09 20:15:00,69.5,65.1,29.59,SE,131,14.0,18.0,86,0.00,,,0.03,0,Wunderground v.1.15,2013-03-10 02:15:00,
2013-03-09 20:20:00,69.4,65.0,29.59,SE,140,13.0,16.0,86,0.00,,,0.03,0,Wunderground v.1.15,2013-03-10 02:20:00,
2013-03-09 20:25:00,69.4,65.0,29.59,SE,143,13.0,16.0,86,0.00,,,0.03,0,Wunderground v.1.15,2013-03-10 02:25:00,
2013-03-09 20:35:00,69.3,64.9,29.59,SSE,147,11.0,13.0,86,0.00,,,0.03,0,Wunderground v.1.15,2013-03-10 02:35:00,
2013-03-09 20:40:00,69.2,64.8,29.59,ESE,113,11.0,18.0,86,0.00,,,0.03,0,Wunderground v.1.15,2013-03-10 02:40:00,
2013-03-09 20:45:00,69.2,64.8,29.60,ESE,105,12.0,18.0,86,0.00,,,0.03,0,Wunderground v.1.15,2013-03-10 02:45:00,
2013-03-09 20:50:00,69.1,64.7,29.60,SE,139,12.0,19.0,86,0.00,,,0.03,0,Wunderground v.1.15,2013-03-10 02:50:00,
2013-03-09 20:55:00,69.0,64.6,29.60,SE,142,12.0,19.0,86,0.00,,,0.03,0,Wunderground v.1.15,2013-03-10 02:55:00,
2013-03-09 21:10:00,68.9,64.9,29.59,SE,138,13.0,16.0,87,0.00,,,0.03,0,Wunderground v.1.15,2013-03-10 03:10:00,
2013-03-09 21:15:00,68.8,64.8,29.57,East,100,14.0,16.0,87,0.00,,,0.03,0,Wunderground v.1.15,2013-03-10 03:15:00,
2013-03-09 21:20:00,68.7,64.7,29.57,SE,144,16.0,21.0,87,0.00,,,0.03,0,Wunderground v.1.15,2013-03-10 03:20:00,
2013-03-09 21:30:00,68.7,64.7,29.56,SSE,163,15.0,15.0,87,0.00,,,0.03,0,Wunderground v.1.15,2013-03-10 03:30:00,
2013-03-09 21:35:00,68.6,64.6,29.56,SSE,160,14.0,16.0,87,0.00,,,0.03,0,Wunderground v.1.15,2013-03-10 03:35:00,
2013-03-09 21:45:00,68.5,64.8,29.54,SE,140,14.0,16.0,88,0.00,,,0.03,0,Wunderground v.1.15,2013-03-10 03:45:00,
2013-03-09 21:50:00,68.5,64.8,29.54,South,169,15.0,15.0,88,0.00,,,0.03,0,Wunderground v.1.15,2013-03-10 03:50:00,
2013-03-09 21:55:00,68.5,64.8,29.54,SSE,168,16.0,20.0,88,0.00,,,0.03,0,Wunderground v.1.15,2013-03-10 03:55:00,
2013-03-09 22:10:00,68.3,64.6,29.54,SSE,149,14.0,16.0,88,0.00,,,0.03,0,Wunderground v.1.15,2013-03-10 04:10:00,
2013-03-09 22:15:00,68.3,64.6,29.54,SE,146,12.0,19.0,88,0.00,,,0.03,0,Wunderground v.1.15,2013-03-10 04:15:00,
2013-03-09 22:21:00,68.3,64.9,29.54,South,173,10.0,14.0,89,0.00,,,0.03,0,Wunderground v.1.15,2013-03-10 04:21:00,
2013-03-09 22:25:00,68.3,64.9,29.54,SE,144,10.0,14.0,89,0.00,,,0.03,0,Wunderground v.1.15,2013-03-10 04:25:00,
2013-03-09 22:30:00,68.3,64.9,29.57,SSE,150,8.0,8.0,89,0.00,,,0.03,0,Wunderground v.1.15,2013-03-10 04:30:00,
2013-03-09 22:35:00,68.3,64.6,29.57,SSE,151,7.0,8.0,88,0.00,,,0.03,0,Wunderground v.1.15,2013-03-10 04:35:00,
2013-03-09 22:40:00,68.3,64.6,29.57,South,191,7.0,7.0,88,0.00,,,0.03,0,Wunderground v.1.15,2013-03-10 04:40:00,
2013-03-09 22:51:00,68.3,64.6,29.58,SE,146,8.0,15.0,88,0.00,,,0.03,0,Wunderground v.1.15,2013-03-10 04:51:00,
2013-03-09 22:55:00,68.4,64.7,29.58,SE,145,10.0,15.0,88,0.00,,,0.03,0,Wunderground v.1.15,2013-03-10 04:55:00,
2013-03-09 23:00:00,68.4,64.7,29.60,SSE,161,10.0,11.0,88,0.00,,,0.03,0,Wunderground v.1.15,2013-03-10 05:00:00,
2013-03-09 23:10:00,68.4,64.7,29.60,SE,130,7.0,7.0,88,0.00,,,0.03,0,Wunderground v.1.15,2013-03-10 05:10:00,
2013-03-09 23:15:00,68.4,64.7,29.59,SSE,156,7.0,11.0,88,0.00,,,0.03,0,Wunderground v.1.15,2013-03-10 05:15:00,
2013-03-09 23:20:00,68.4,64.7,29.59,SSE,158,10.0,10.0,88,0.00,,,0.03,0,Wunderground v.1.15,2013-03-10 05:20:00,
2013-03-09 23:25:00,68.4,64.7,29.59,SSE,151,9.0,10.0,88,0.00,,,0.03,0,Wunderground v.1.15,2013-03-10 05:25:00,
2013-03-09 23:30:00,68.4,64.7,29.62,WSW,239,6.0,6.0,88,0.00,,,0.03,0,Wunderground v.1.15,2013-03-10 05:30:00,
2013-03-09 23:35:00,68.5,64.8,29.62,SE,130,7.0,18.0,88,0.00,,,0.03,0,Wunderground v.1.15,2013-03-10 05:35:00,
2013-03-09 23:40:00,68.5,64.5,29.62,ESE,109,10.0,10.0,87,0.00,,,0.03,0,Wunderground v.1.15,2013-03-10 05:40:00,
2013-03-09 23:45:00,68.4,64.4,29.56,South,178,10.0,12.0,87,0.00,,,0.03,0,Wunderground v.1.15,2013-03-10 05:45:00,
2013-03-09 23:50:00,68.4,64.4,29.56,South,186,6.0,11.0,87,0.00,,,0.03,0,Wunderground v.1.15,2013-03-10 05:50:00,
2013-03-09 23:55:00,68.4,64.4,29.56,ESE,110,5.0,11.0,87,0.00,,,0.03,0,Wunderground v.1.15,2013-03-10 05:55:00,